THOR ABLESTAR DEB, 134

Orbit data source: Space-Track

THOR ABLESTAR DEB, 134 is space debris in LEO originally from a launch on Thu, 29 Jun 1961 UTC launched from the Air Force Eastern Test Range (AFETR). Debris objects in space refer to the collection of defunct objects orbiting the Earth. Examples of debris include non-operational satellites, rocket bodies, and fragments generated from explosions, collisions, or faulty payload assembly.

Loading next visibility...
Identifier
134, 1961-015U
Orbit
LEO
Country
Flag of USUS
Related business
Manufacturer
Unknown
Mission
Spacecraft
Bus & Motor
Unknown
Mass
Unknown
Launch date (UTC)
1961-06-29 (65 years ago)
Launch vehicle
Unknown
Launch site
Air Force Eastern Test Range (AFETR)
Object type
Payload
Rocket body
Debris
Shape & HBR
Unknown shape, 1.1 m
Radar Cross Section
Large (>1 m²)

Expand to show TLE details & history
Last TLE update: 21 hours ago

TLE from 21 hours ago
0 THOR ABLESTAR DEB
1 00134U 61015U   26126.35726488  .00000068  00000-0  10010-3 0  9990
2 00134  66.8781 149.7540 0086157 225.3594 134.0443 13.97753712299850
Epoch: 2026-05-06T08:34Z
TLE epoch observation values (Epoch: 2026-05-06T08:34:27.685Z)
Latitude
-0.00003°
Longitude
156.91972°
Altitude
947.558 km
Speed
7.356 km/s
True Right ascension
09h 59m 00s
True Declination
0° 00' 00"
Sunlit
Object was in daylight at epoch
Visualization orbit readout
Latitude
Unknown
Longitude
Unknown
Altitude
Unknown
Speed
Unknown
Apparent Right ascension
Unknown
Apparent Declination
Unknown
Sunlit
N/A
Visualization observer readout
Local Sidereal Time
13:43:23
Azimuth
Unknown
Elevation
Unknown
Doppler factor
Unknown
Orbital elements
Apogee altitude
962.669 km
Perigee altitude
837.257 km
Semi-major axis
7,278.1 km
Eccentricity
0.00862
Inclination
66.8781°
RAAN
149.754°
Arg. of periapsis
225.3594°
True anomaly
134.74867°
Mean anomaly
134.0443°
Eccentric anomaly
134.39701°
Mean motion
3.49555 °/min
Orbital period
102.99 mins
BSTAR
0.0001001

Documentation

Showing up to 5 results
|